This is the latest recevied weather packets stored in our database for station/object SP1BMW-13. If no packets are shown the sender has not sent any weather packets the latest 10 day(s).
| Time | Temp. | Humidity | Pressure | Rain* | Wind** | Luminosity | Snow |
|---|---|---|---|---|---|---|---|
| 1788014073 | 25.56° C | 41% | 1009.4 hPa | 0 mm | 1.79 m/s, 282° | 441 W/m² | - |
| 1788014012 | 25.56° C | 42% | 1009.2 hPa | 0 mm | 0.45 m/s, 337° | 481 W/m² | - |
| 1788013953 | 25.56° C | 41% | 1009.3 hPa | 0 mm | 0.89 m/s, 22° | 487 W/m² | - |
| 1788013892 | 25.56° C | 42% | 1009.5 hPa | 0 mm | 0.89 m/s, 295° | 449 W/m² | - |
| 1788013833 | 25.56° C | 43% | 1009.4 hPa | 0 mm | 0.45 m/s, 292° | 311 W/m² | - |
| 1788013772 | 25.56° C | 44% | 1009.3 hPa | 0 mm | 1.34 m/s, 314° | 400 W/m² | - |
| 1788013713 | 25.56° C | 42% | 1009.4 hPa | 0 mm | 1.79 m/s, 199° | 374 W/m² | - |
| 1788013653 | 25.56° C | 43% | 1009.3 hPa | 0 mm | 0.89 m/s, 324° | 364 W/m² | - |
| 1788013593 | 25.56° C | 42% | 1009.3 hPa | 0 mm | 1.34 m/s, 152° | 361 W/m² | - |
| 1788013533 | 25.56° C | 42% | 1009.2 hPa | 0 mm | 1.79 m/s, 143° | 319 W/m² | - |
| 1788013473 | 25.56° C | 42% | 1009.6 hPa | 0 mm | 0.89 m/s, 168° | 364 W/m² | - |
| 1788013414 | 25.56° C | 43% | 1009.4 hPa | 0 mm | 0.89 m/s, 152° | 284 W/m² | - |
| 1788013354 | 25.56° C | 43% | 1009.3 hPa | 0 mm | 0.89 m/s, 196° | 365 W/m² | - |
| 1788013293 | 25.56° C | 41% | 1009.4 hPa | 0 mm | 0.89 m/s, 206° | 318 W/m² | - |
| 1788013234 | 25.56° C | 42% | 1009.4 hPa | 0 mm | 0.45 m/s, 333° | 241 W/m² | - |
| 1788013173 | 25.56° C | 42% | 1009.3 hPa | 0 mm | 1.34 m/s, 266° | 263 W/m² | - |
| 1788013113 | 25.56° C | 43% | 1009.2 hPa | 0 mm | 0 m/s | 326 W/m² | - |
| 1788013053 | 25.56° C | 42% | 1009.3 hPa | 0 mm | 0.45 m/s, 316° | 195 W/m² | - |
| 1788013000 | 25.56° C | 41% | 1009.2 hPa | 0 mm | 0 m/s | 174 W/m² | - |
| 1788012933 | 25.56° C | 42% | 1009.3 hPa | 0 mm | 0.45 m/s, 291° | 169 W/m² | - |
| 1788012874 | 25.56° C | 42% | 1009.2 hPa | 0 mm | 0.89 m/s, 110° | 203 W/m² | - |
| 1788012817 | 25.56° C | 41% | 1009.4 hPa | 0 mm | 0.45 m/s, 9° | 257 W/m² | - |
| 1788012753 | 25.56° C | 41% | 1009.4 hPa | 0 mm | 0.45 m/s, 240° | 228 W/m² | - |
| 1788012693 | 25.56° C | 41% | 1009.2 hPa | 0 mm | 0.89 m/s, 20° | 186 W/m² | - |
| 1788012633 | 25.56° C | 41% | 1009.4 hPa | 0 mm | 0.89 m/s, 240° | 232 W/m² | - |
* Rain latest hour (hover to see other rain measurements)
** Current wind speed in m/s (hover to see current wind gust speed)